Location: Kampung Segan
(3.1399°N, 113.1002°E)
Time: 13:31:32
(UTC+00:00)

MOS 1-B Rocket - Pass Details

Date: 20 October 2025
Orbit: 891 x 1603 km, 99.0° (Epoch: 16 November)

Event Time Altitude Azimuth Distance (km) Brightness Sun altitude
Rises 20:07:03 0° 13° (NNE) 4,659 7.6 -31.3°
Reaches altitude 10° 20:09:51 10° 14° (NNE) 3,730 7.0 -30.7°
Maximum altitude 20:18:56 89° 105° (ESE) 1,606 4.9 -28.4°
Drops below altitude 10° 20:28:07 10° 193° (SSW) 3,761 7.0 -26.2°
Sets 20:30:56 0° 193° (SSW) 4,699 7.5 -25.5°
